Wind_Speed
25 25 25 26 27 28 27 25 25 24 24 24 25 26 26 27 27 28 26 24 24 24 23 21 20 20 19 18 17 17 15 14 13 12 12 12 11 11 10 10 9 8 8 7 7 7 6 6 6
25 25 26 27 28 29 28 27 27 26 25 25 25 26 27 28 28 28 28 26 25 25 24 23 23 22 21 20 19 19 17 16 15 14 13 13 12 12 11 10 10 9 9 8 8 7 7 7 7
25 25 26 27 28 29 29 29 29 28 27 26 26 27 28 28 29 29 29 28 27 27 26 26 25 24 23 22 21 21 20 18 17 16 15 15 14 13 13 12 11 10 10 10 9 9 8 8 8
25 26 27 28 28 28 29 30 30 30 29 28 28 28 28 28 29 30 30 29 29 29 29 28 27 27 26 25 24 23 22 20 19 18 16 16 16 15 15 14 13 12 11 11 10 10 10 9 9
25 26 27 28 28 28 29 30 30 30 30 29 29 29 29 28 29 30 31 30 30 30 31 30 29 29 28 27 26 25 24 22 21 19 19 18 17 16 16 16 15 13 13 12 12 11 11 11 10
25 26 27 27 27 28 29 29 30 30 31 30 30 30 29 29 29 30 31 32 31 32 32 32 31 31 30 29 28 27 26 25 23 22 20 19 18 18 17 17 16 15 14 14 13 13 12 12 12
24 25 26 26 26 28 29 29 30 30 31 31 31 31 29 29 29 30 31 32 33 33 33 33 32 32 32 31 30 29 27 26 25 24 22 21 20 20 19 18 18 17 16 15 14 13 14 14 14
22 24 25 26 26 26 27 28 29 30 31 32 32 32 31 30 30 31 31 32 33 33 33 34 33 33 33 33 32 31 30 28 26 25 25 23 22 21 20 20 19 18 18 17 16 15 15 15 15
22 24 24 24 26 26 27 28 29 30 31 31 32 32 32 31 31 32 32 32 33 33 33 34 34 34 33 33 33 32 31 30 28 27 26 25 24 23 22 21 21 20 19 19 18 17 17 17 17
22 23 24 24 25 25 26 27 29 30 30 31 32 33 33 32 32 32 33 33 33 33 33 33 33 34 34 34 33 32 32 30 30 28 27 27 26 25 23 22 22 22 21 20 19 19 18 18 18
21 22 23 24 25 26 25 26 28 30 30 31 32 32 33 33 32 32 32 33 33 33 34 34 34 34 34 34 33 33 32 31 31 30 28 28 27 26 25 24 23 23 23 22 21 20 20 20 19
21 21 22 23 24 26 27 26 27 28 29 30 31 32 33 33 33 32 33 33 33 33 34 34 34 35 34 34 34 33 33 32 32 31 30 29 28 28 27 26 24 24 24 23 23 22 22 21 21
21 21 22 22 23 25 26 26 26 27 27 29 31 31 33 33 32 32 33 33 33 34 35 35 34 34 34 35 35 35 34 33 32 32 31 30 29 29 28 28 27 26 25 25 24 24 24 23 23
20 21 20 21 21 22 24 24 24 24 26 27 29 31 31 32 32 31 32 33 33 34 35 36 35 35 35 35 35 35 35 34 33 32 32 31 31 30 29 29 29 28 27 27 26 26 26 25 25
20 20 19 19 20 19 21 22 23 23 25 26 28 29 30 32 32 31 32 33 33 34 35 36 36 36 36 37 35 35 36 35 34 33 32 31 31 31 31 30 30 30 30 29 28 27 27 27 27
20 20 19 19 19 19 20 21 22 23 25 25 27 28 30 31 31 31 32 33 33 34 36 36 37 37 36 37 37 36 37 36 35 34 33 32 32 32 32 32 31 31 31 31 30 29 28 28 28
20 19 19 19 20 20 20 20 21 23 24 24 25 26 28 30 30 31 32 32 33 34 36 37 38 37 37 37 38 38 37 37 37 36 34 32 32 33 33 33 33 33 32 32 32 31 30 29 29
20 20 19 19 19 19 20 20 20 21 23 23 23 24 26 28 29 30 31 32 33 34 36 37 38 37 37 37 38 38 38 38 37 36 36 34 33 33 33 34 34 34 34 33 32 32 31 30 30
20 20 20 19 20 20 19 20 20 20 21 22 22 23 25 26 28 29 30 32 32 33 35 36 37 37 36 37 38 38 38 37 37 36 36 36 34 33 33 34 35 35 35 34 34 33 32 32 32
19 20 20 19 20 20 19 18 18 19 19 20 20 20 24 26 27 28 29 31 32 33 34 35 36 37 36 37 38 37 37 37 37 37 37 36 36 35 34 34 35 36 36 35 36 35 34 33 34
19 20 19 19 19 20 19 17 17 17 16 17 18 19 20 24 26 27 28 29 32 33 34 35 37 37 37 37 38 36 37 36 36 37 37 37 37 36 35 34 34 35 35 36 37 37 36 36 36
19 19 19 19 19 19 19 17 16 16 15 16 17 18 19 21 24 26 27 28 29 31 33 34 36 37 35 35 36 35 35 35 35 36 37 37 37 37 36 36 35 36 36 36 37 37 38 37 37
19 19 19 19 19 18 18 18 16 15 15 15 17 18 18 19 21 24 26 27 28 29 30 33 35 36 35 34 35 34 34 35 34 35 36 37 37 36 36 36 36 36 36 37 38 38 39 39 38
19 19 19 19 19 19 17 18 16 16 16 15 17 17 18 18 19 21 23 26 27 28 29 30 33 34 35 34 34 34 34 34 35 36 36 36 36 36 36 36 37 37 37 37 38 39 39 40 40
19 19 20 20 19 18 17 18 17 16 17 17 17 17 18 19 19 20 22 25 26 27 29 29 31 33 34 34 34 34 34 34 35 36 36 35 36 37 37 37 37 37 38 38 37 38 40 41 41
20 20 20 20 21 20 18 18 18 17 17 18 19 18 18 19 19 20 22 25 27 27 28 28 29 31 33 34 35 35 34 35 36 36 36 37 36 37 37 38 38 38 38 38 39 39 40 41 41
21 20 20 21 21 21 20 18 17 17 17 18 19 19 19 19 20 20 21 24 26 27 27 27 29 30 33 34 35 35 35 36 37 36 36 37 37 37 38 39 39 39 39 39 40 41 41 41 42
22 21 21 21 22 22 21 20 18 16 17 18 19 20 19 19 20 21 21 23 24 26 26 28 28 29 31 34 35 35 35 35 36 36 36 37 37 37 39 40 40 40 40 40 40 41 42 43 43
23 22 22 23 23 23 23 22 20 18 18 18 19 19 19 20 20 20 21 23 25 26 27 28 28 29 30 31 33 33 34 35 37 38 37 38 39 39 39 38 38 39 40 41 42 42 43 44 44
26 25 24 24 24 24 25 23 21 19 19 19 19 19 19 20 20 21 22 24 25 26 27 27 29 30 31 31 33 33 34 36 38 39 39 40 40 40 39 39 39 40 42 43 43 44 45 45 46
Wind_Direction
259 259 257 256 255 254 254 254 253 251 249 248 247 245 242 241 240 241 241 241 241 239 237 237 235 233 233 232 231 230 230 233 234 234 233 230 227 226 226 225 225 225 229 233 235 237 242 246 249
259 258 257 255 255 255 255 254 253 253 251 248 247 245 243 242 241 241 242 242 241 238 237 237 236 234 234 233 232 232 233 233 234 235 233 231 230 229 227 227 229 229 232 236 237 240 243 248 250
259 259 257 256 256 257 258 255 254 254 251 248 247 246 245 244 242 241 242 242 241 240 238 237 236 235 235 235 234 234 234 233 234 236 236 233 232 232 229 229 233 235 237 239 240 241 244 248 249
260 259 257 257 257 257 257 257 255 253 251 248 247 246 246 246 244 241 241 241 241 241 239 238 237 236 235 235 235 235 235 234 234 235 236 234 233 233 233 233 235 237 240 241 241 243 244 245 249
263 260 258 258 258 257 257 257 255 253 250 248 246 246 246 246 245 242 241 241 241 240 239 239 239 238 236 235 235 235 235 235 234 236 236 235 234 233 235 236 236 238 240 242 243 243 243 246 250
266 262 261 260 259 258 257 257 255 253 250 248 246 245 244 245 244 243 242 241 241 241 240 239 240 239 236 235 234 234 235 235 236 236 238 237 235 235 235 236 237 239 240 243 243 243 244 248 251
269 265 262 261 261 260 258 256 255 253 251 248 246 244 242 243 243 243 243 242 242 241 241 240 239 238 236 234 233 233 233 234 235 237 237 238 236 236 236 237 238 241 242 242 243 245 246 249 252
273 269 265 263 263 261 258 255 253 253 251 249 247 245 242 242 242 242 243 242 242 242 241 239 238 237 236 234 233 232 233 234 236 237 237 238 237 238 238 237 239 241 243 244 244 246 249 251 253
278 273 269 266 265 263 260 256 254 253 253 250 248 246 243 243 244 244 243 242 242 241 240 239 237 235 235 234 233 232 233 234 236 237 237 238 238 238 239 238 238 241 243 244 245 247 250 253 255
282 277 272 270 267 264 263 260 255 253 252 250 249 246 243 243 244 243 242 242 241 241 239 238 237 235 234 233 233 233 233 234 235 237 238 239 238 238 238 239 239 240 243 245 246 248 251 254 257
286 282 276 274 270 266 263 260 256 252 251 250 249 246 244 243 242 242 241 240 240 240 239 238 236 234 233 233 233 233 234 235 235 237 238 239 237 238 239 240 240 241 243 244 246 248 251 254 258
291 288 282 278 274 269 264 260 257 255 251 249 248 246 244 243 241 240 240 240 240 238 237 236 235 234 233 234 233 233 234 235 236 236 238 239 238 238 240 241 242 242 243 245 247 250 252 256 259
293 291 286 282 277 272 267 263 259 256 253 250 247 245 243 241 241 239 238 238 238 237 235 235 234 233 232 233 233 234 235 236 237 238 239 240 239 240 240 241 242 242 244 247 249 251 252 255 259
295 293 289 285 281 275 270 265 261 258 254 251 247 244 242 239 240 239 237 237 237 236 235 234 233 232 231 231 233 234 235 236 237 239 240 240 240 241 241 242 244 246 247 249 251 252 253 255 258
297 293 289 286 283 277 271 266 262 260 255 253 249 245 242 239 239 237 235 235 236 235 234 233 232 232 232 233 233 234 235 236 236 238 240 241 240 241 241 243 244 247 249 250 251 252 254 256 259
296 293 289 287 285 281 274 269 265 261 257 255 250 245 242 239 238 236 233 233 235 234 233 232 231 232 232 232 233 233 234 236 235 236 239 240 240 241 242 243 245 247 249 250 252 253 255 257 259
294 292 292 289 287 285 280 277 272 265 259 258 252 247 244 240 236 234 232 232 233 234 232 232 231 234 233 232 233 235 235 236 236 236 238 240 243 244 245 246 247 249 250 250 252 253 255 257 259
296 295 293 292 290 288 285 282 277 270 263 260 255 247 243 238 237 234 233 232 234 235 233 232 231 234 233 233 233 234 236 236 237 238 240 242 245 246 247 248 249 250 251 251 252 254 255 257 259
296 297 296 294 292 290 286 283 278 274 267 262 259 250 243 239 237 234 234 234 234 232 231 231 231 233 234 235 234 235 238 238 238 240 243 244 246 247 248 249 250 250 251 251 251 253 255 257 258
297 298 298 296 294 293 288 283 279 275 269 265 258 252 244 241 237 235 235 234 234 233 232 231 231 233 236 236 235 236 239 240 240 242 244 245 246 248 250 251 251 251 252 252 254 255 257 258 259
299 300 302 301 298 296 293 285 279 277 271 263 256 253 247 242 240 237 237 235 234 234 233 231 232 234 236 236 236 237 238 239 241 243 245 246 247 248 250 251 251 251 253 255 255 257 260 260 260
298 300 303 304 302 300 296 292 283 279 273 264 257 254 249 248 244 241 238 237 236 235 234 233 233 235 236 237 237 239 241 241 243 244 245 246 247 248 248 249 251 253 254 254 255 257 260 262 263
298 300 301 302 303 301 296 292 287 284 275 267 259 256 255 252 249 246 242 241 240 238 238 237 235 237 238 240 240 240 241 240 243 244 245 246 247 248 248 249 250 253 253 253 255 258 260 261 263
294 297 298 299 300 300 299 293 288 288 282 274 265 259 256 254 255 250 246 244 243 241 241 240 239 240 239 241 241 240 241 240 242 243 244 247 248 248 249 250 252 253 254 254 255 258 260 262 263
289 293 298 299 299 300 298 294 290 287 283 277 271 265 260 257 259 255 248 246 245 245 244 244 242 240 241 243 243 242 242 241 243 244 245 247 248 249 250 251 253 254 255 256 257 258 260 262 264
284 288 292 295 298 299 299 297 293 289 285 281 274 270 265 260 260 258 253 248 246 246 245 244 243 241 242 244 245 244 243 244 245 246 247 248 250 250 251 253 253 255 257 257 257 258 260 263 265
281 284 288 291 293 295 297 298 295 295 292 286 277 272 268 262 257 256 254 251 249 248 248 245 243 244 243 245 247 247 247 247 247 247 249 251 252 253 253 254 255 256 258 260 260 259 261 264 266
277 280 283 287 291 293 294 294 296 299 296 287 280 275 268 262 258 257 253 251 250 251 249 244 244 244 245 247 248 247 247 247 246 247 251 253 254 255 255 256 257 259 261 262 263 263 264 265 267
272 275 278 281 284 288 291 292 295 296 295 289 283 277 268 264 262 258 254 254 253 252 250 249 248 247 247 250 251 249 249 249 248 250 253 255 257 258 258 258 259 261 262 263 264 265 266 266 267
270 271 274 276 280 283 286 288 291 293 293 288 283 279 272 267 265 260 259 258 257 255 254 253 251 250 251 254 255 253 252 251 250 250 253 256 258 259 260 260 260 262 263 265 265 265 266 267 267
Height
5820 5820 5821 5821 5822 5822 5823 5825 5826 5828 5829 5829 5830 5831 5833 5835 5837 5840 5840 5841 5842 5843 5845 5846 5848 5849 5850 5851 5852 5853 5853 5854 5855 5855 5856 5856 5857 5858 5859 5859 5860 5861 5861 5862 5862 5862 5863 5863 5863
5814 5814 5815 5815 5815 5815 5817 5819 5820 5821 5822 5824 5824 5826 5827 5829 5830 5832 5834 5836 5837 5839 5840 5842 5843 5844 5846 5847 5848 5849 5850 5851 5852 5852 5853 5854 5855 5856 5857 5857 5858 5859 5859 5860 5860 5861 5861 5861 5861
5807 5807 5808 5808 5808 5810 5811 5812 5813 5814 5816 5817 5818 5819 5821 5823 5825 5826 5828 5830 5832 5833 5835 5837 5838 5840 5841 5843 5844 5845 5846 5847 5848 5849 5850 5851 5852 5853 5854 5855 5856 5856 5857 5857 5858 5858 5859 5859 5859
5800 5801 5801 5801 5802 5804 5804 5804 5805 5807 5809 5810 5811 5813 5814 5817 5819 5820 5822 5824 5826 5828 5829 5831 5833 5834 5836 5838 5839 5841 5842 5843 5844 5845 5846 5848 5849 5850 5851 5852 5853 5854 5854 5855 5855 5856 5856 5857 5857
5793 5793 5793 5794 5795 5796 5796 5796 5797 5799 5801 5803 5804 5806 5808 5810 5811 5813 5815 5817 5819 5821 5823 5825 5827 5829 5830 5832 5834 5835 5837 5839 5840 5841 5842 5844 5845 5846 5847 5849 5850 5851 5851 5852 5853 5853 5854 5854 5854
5787 5786 5786 5786 5788 5788 5788 5789 5789 5791 5792 5795 5796 5798 5801 5803 5804 5806 5808 5810 5812 5814 5816 5818 5820 5822 5824 5825 5827 5830 5831 5833 5835 5837 5838 5839 5841 5842 5844 5845 5846 5847 5848 5849 5850 5850 5851 5851 5851
5780 5779 5779 5779 5779 5780 5780 5780 5781 5783 5784 5786 5788 5790 5793 5795 5797 5799 5801 5803 5805 5807 5809 5811 5813 5815 5816 5819 5821 5823 5825 5827 5829 5831 5833 5835 5837 5838 5839 5841 5842 5844 5845 5846 5846 5847 5847 5848 5848
5773 5773 5771 5772 5771 5772 5772 5772 5773 5774 5776 5778 5779 5782 5785 5787 5789 5791 5793 5795 5797 5799 5801 5804 5806 5808 5810 5812 5814 5817 5819 5821 5823 5825 5828 5830 5832 5833 5835 5837 5838 5840 5841 5842 5843 5843 5844 5844 5845
5766 5766 5765 5764 5764 5764 5764 5764 5764 5765 5767 5769 5771 5774 5777 5778 5781 5783 5785 5787 5789 5792 5794 5796 5798 5801 5803 5805 5808 5811 5813 5815 5818 5820 5822 5824 5826 5829 5831 5832 5834 5835 5837 5838 5839 5839 5840 5840 5841
5760 5759 5759 5757 5756 5756 5755 5755 5755 5756 5758 5760 5762 5764 5767 5769 5772 5774 5777 5779 5782 5784 5786 5788 5791 5794 5797 5799 5802 5804 5807 5809 5812 5814 5816 5819 5821 5823 5826 5827 5829 5831 5832 5833 5834 5835 5836 5836 5837
5755 5754 5752 5750 5748 5747 5747 5747 5746 5747 5749 5751 5753 5755 5757 5760 5763 5766 5768 5771 5774 5776 5778 5781 5784 5787 5790 5793 5796 5798 5801 5803 5806 5808 5810 5813 5815 5818 5820 5823 5824 5825 5827 5828 5829 5830 5831 5832 5832
5750 5748 5745 5743 5741 5739 5738 5738 5738 5739 5741 5742 5744 5746 5749 5752 5755 5757 5760 5763 5766 5768 5771 5774 5777 5781 5784 5787 5790 5792 5795 5797 5800 5803 5805 5807 5809 5812 5815 5817 5819 5820 5822 5823 5824 5825 5826 5827 5827
5744 5742 5739 5737 5734 5732 5731 5730 5730 5732 5732 5733 5735 5737 5740 5743 5745 5748 5751 5755 5758 5761 5764 5767 5771 5774 5777 5779 5783 5786 5789 5792 5794 5797 5799 5801 5803 5806 5809 5811 5813 5815 5816 5818 5819 5820 5821 5821 5822
5739 5736 5734 5731 5728 5726 5724 5724 5723 5725 5725 5726 5727 5729 5731 5734 5736 5739 5743 5747 5750 5753 5756 5760 5764 5767 5770 5773 5776 5779 5782 5785 5788 5790 5793 5795 5797 5800 5802 5805 5807 5809 5810 5812 5813 5814 5815 5816 5816
5733 5731 5729 5725 5723 5721 5719 5719 5718 5717 5717 5718 5720 5721 5724 5726 5728 5731 5734 5738 5742 5745 5749 5752 5756 5760 5763 5766 5770 5773 5776 5779 5781 5784 5786 5788 5791 5793 5796 5798 5800 5802 5804 5805 5807 5808 5809 5810 5810
5729 5726 5724 5722 5718 5716 5715 5714 5712 5710 5710 5711 5712 5714 5716 5718 5720 5723 5726 5730 5733 5737 5741 5745 5749 5752 5755 5759 5763 5766 5769 5772 5774 5777 5779 5782 5784 5787 5789 5791 5793 5795 5797 5799 5800 5801 5802 5803 5804
5724 5722 5719 5717 5715 5712 5709 5708 5706 5704 5703 5704 5705 5706 5708 5710 5712 5715 5718 5722 5726 5729 5733 5737 5741 5744 5748 5752 5756 5759 5762 5765 5768 5770 5773 5775 5778 5780 5782 5784 5786 5788 5790 5792 5793 5795 5796 5796 5797
5720 5717 5715 5712 5710 5707 5704 5703 5701 5699 5698 5698 5699 5700 5701 5703 5706 5708 5711 5714 5718 5721 5725 5729 5734 5737 5741 5744 5748 5752 5755 5757 5760 5763 5766 5768 5771 5773 5775 5777 5779 5781 5783 5784 5786 5788 5788 5789 5790
5715 5712 5710 5708 5705 5702 5700 5698 5696 5694 5693 5693 5693 5694 5695 5697 5699 5701 5705 5707 5710 5713 5717 5721 5726 5729 5733 5737 5741 5744 5747 5750 5753 5756 5758 5761 5763 5765 5768 5770 5771 5773 5775 5777 5779 5780 5781 5782 5783
5710 5708 5706 5704 5700 5697 5696 5693 5691 5689 5688 5688 5688 5689 5690 5691 5693 5695 5697 5700 5703 5706 5710 5714 5718 5722 5725 5729 5733 5736 5740 5743 5746 5749 5751 5753 5756 5758 5760 5762 5764 5766 5768 5769 5771 5772 5774 5774 5775
5706 5704 5702 5699 5696 5693 5691 5689 5688 5686 5684 5684 5684 5684 5684 5686 5688 5689 5691 5693 5696 5699 5702 5706 5710 5714 5717 5721 5724 5727 5731 5734 5738 5741 5744 5746 5748 5750 5752 5754 5756 5758 5760 5762 5763 5764 5766 5766 5767
5702 5700 5698 5694 5691 5689 5687 5684 5684 5682 5681 5680 5680 5680 5680 5681 5682 5683 5685 5687 5690 5693 5696 5699 5702 5706 5710 5713 5716 5719 5723 5727 5730 5733 5735 5738 5740 5742 5744 5746 5747 5749 5751 5753 5755 5756 5757 5758 5758
5698 5696 5693 5690 5687 5685 5683 5681 5681 5679 5678 5677 5676 5676 5676 5676 5677 5678 5680 5682 5684 5686 5689 5692 5695 5698 5702 5705 5709 5712 5716 5720 5722 5725 5727 5729 5732 5734 5736 5737 5739 5741 5743 5744 5746 5747 5748 5749 5749
5694 5692 5689 5686 5684 5682 5680 5677 5676 5675 5674 5673 5672 5672 5671 5672 5672 5673 5674 5676 5678 5680 5683 5686 5689 5692 5695 5698 5701 5704 5707 5711 5714 5716 5719 5721 5723 5725 5727 5728 5730 5732 5734 5735 5737 5738 5739 5739 5740
5689 5688 5685 5682 5679 5679 5676 5673 5673 5672 5670 5669 5668 5667 5667 5667 5668 5669 5670 5671 5673 5674 5677 5679 5682 5685 5688 5691 5693 5696 5700 5703 5706 5708 5711 5713 5715 5717 5718 5720 5721 5723 5725 5726 5727 5728 5729 5730 5730
5684 5683 5682 5679 5676 5675 5672 5669 5669 5668 5666 5664 5663 5663 5663 5663 5663 5664 5664 5665 5667 5669 5670 5672 5675 5678 5681 5684 5686 5689 5692 5695 5698 5700 5702 5704 5706 5707 5709 5710 5712 5713 5715 5716 5717 5718 5719 5719 5720
5679 5678 5677 5674 5672 5670 5668 5666 5665 5663 5662 5660 5659 5658 5658 5658 5658 5658 5659 5660 5661 5662 5664 5666 5669 5671 5673 5676 5678 5680 5683 5686 5689 5691 5693 5695 5696 5698 5699 5700 5702 5703 5704 5706 5707 5708 5708 5709 5709
5674 5672 5671 5669 5666 5665 5664 5662 5661 5659 5657 5656 5654 5653 5652 5652 5652 5653 5653 5654 5655 5656 5658 5660 5662 5664 5667 5669 5671 5673 5675 5677 5679 5682 5684 5685 5687 5688 5689 5690 5691 5692 5694 5695 5696 5696 5697 5697 5697
5667 5667 5665 5663 5662 5660 5658 5660 5657 5655 5653 5651 5649 5648 5647 5647 5647 5647 5648 5648 5649 5650 5652 5654 5655 5657 5659 5661 5663 5665 5666 5668 5670 5672 5674 5675 5677 5678 5679 5679 5680 5681 5682 5683 5684 5685 5685 5685 5685
5660 5659 5659 5658 5656 5654 5653 5655 5652 5650 5648 5646 5644 5643 5642 5642 5641 5641 5642 5642 5643 5644 5645 5647 5648 5650 5651 5653 5655 5656 5658 5659 5661 5662 5663 5665 5666 5667 5668 5669 5669 5670 5671 5672 5672 5672 5672 5672 5672